Weather History for LTCF - November, 2013

Change the Weather History Date:

Tuesday, November 5, 2013

  Actual Average Record
Temperature  
Mean Temperature 38 °F -  
Max Temperature 59 °F 41 °F - ()
Min Temperature 17 °F 22 °F - ()
Degree Days  
Heating Degree Days 27    
Moisture  
Dew Point 20 °F    
Average Humidity 50    
Maximum Humidity 79    
Minimum Humidity 14    
Precipitation  
Precipitation 0.00 in 0.03 in - ()
Sea Level Pressure  
Sea Level Pressure 30.30 in    
Wind  
Wind Speed 1 mph ()    
Max Wind Speed 7 mph    
Max Gust Speed -    
Visibility 6.1 miles    
Events      
T = Trace of Precipitation, MM = Missing Value Source: Averaged Metar Reports

Daily Weather History Graph

Daily Weather History Graph

Search for Another Location

Airport or City:

Trip Planner

Search our weather history database for the weather conditions in past years. The results will help you decide how hot, cold, wet, or windy it might be!

Date:

Astronomy

Nov. 05, 2013 Rise Set
Actual Time 5:42 AM EET 3:59 PM EET
Civil Twilight 5:13 AM EET 4:28 PM EET
Nautical Twilight 4:41 AM EET 5:00 PM EET
Astronomical Twilight 4:09 AM EET 5:32 PM EET
Moon 7:34 AM EET (11/5) 5:39 PM EET (11/5)
Length of Visible Light 11h 14m
Length of Day
10h 17m
Waxing Crescent, 5% of the Moon is Illuminated
Nov 5
Waxing Crescent
Nov 10
First Quarter
Nov 17
Full
Nov 25
Last Quarter
Dec 3
New

Hourly Weather History & Observations

Time (EET) Temp. Windchill Dew Point Humidity Pressure Visibility Wind Dir Wind Speed Gust Speed Precip Events Conditions
12:50 AM 26.6 °F - 17.6 °F 69% 30.33 in - WNW 2.3 mph - N/A   Clear
1:50 AM 24.8 °F - 17.6 °F 74% 30.33 in - Calm Calm - N/A   Clear
2:00 AM 25 °F - 17 °F 61%  in 6 mi Calm Calm - -  
2:50 AM 23.0 °F - 15.8 °F 74% 30.33 in - Calm Calm - N/A   Clear
3:50 AM 23.0 °F - 15.8 °F 74% 30.33 in - West 1.2 mph - N/A   Clear
4:50 AM 23.0 °F - 15.8 °F 74% 30.33 in - Calm Calm - N/A   Clear
5:50 AM 17.6 °F - 12.2 °F 79% 30.36 in - Calm Calm - N/A   Clear
6:50 AM 26.6 °F - 19.4 °F 74% 30.36 in - Calm Calm - N/A   Clear
7:50 AM 32.0 °F - 19.4 °F 60% 30.36 in - Variable 1.2 mph - N/A   Clear
8:00 AM 33 °F - 19 °F 42%  in 6 mi WSW 1.2 mph - -  
8:50 AM 37.4 °F - 19.4 °F 48% 30.36 in 6.2 mi Calm Calm - N/A   Partly Cloudy
9:50 AM 48.2 °F - 19.4 °F 32% 30.33 in 6.2 mi Variable 1.2 mph - N/A   Scattered Clouds
10:50 AM 53.6 °F - 19.4 °F 26% 30.33 in 6.2 mi Variable 1.2 mph - N/A   Scattered Clouds
11:50 AM 55.4 °F - 19.4 °F 25% 30.30 in 6.2 mi Variable 2.3 mph - N/A   Scattered Clouds
12:50 PM 57.2 °F - 19.4 °F 23% 30.27 in 6.2 mi Calm Calm - N/A   Scattered Clouds
1:50 PM 57.2 °F - 21.2 °F 25% 30.27 in 6.2 mi NNE 6.9 mph - N/A   Scattered Clouds
2:00 PM 57 °F - 22 °F 14%  in 6 mi NNE 6.9 mph - -   Partly Cloudy
2:50 PM 57.2 °F - 21.2 °F 25% 30.27 in 6.2 mi NNE 6.9 mph - N/A   Mostly Cloudy
3:50 PM 50.0 °F - 21.2 °F 32% 30.24 in 6.2 mi WSW 6.9 mph - N/A   Mostly Cloudy
4:50 PM 46.4 °F 43.5 °F 23.0 °F 40% 30.24 in 6.2 mi SW 5.8 mph - N/A   Scattered Clouds
5:50 PM 44.6 °F - 21.2 °F 39% 30.27 in 6.2 mi Calm Calm - N/A   Partly Cloudy
6:50 PM 42.8 °F - 23.0 °F 46% 30.27 in - Calm Calm - N/A   Clear
7:50 PM 37.4 °F - 23.0 °F 56% 30.27 in - Calm Calm - N/A   Clear
8:00 PM 38 °F - 21 °F 37%  in 6 mi Calm Calm - -  
8:50 PM 37.4 °F - 21.2 °F 52% 30.27 in - Calm Calm - N/A   Clear
9:50 PM 33.8 °F - 23.0 °F 65% 30.27 in - WNW 1.2 mph - N/A   Clear
10:50 PM 33.8 °F - 23.0 °F 65% 30.27 in - Calm Calm - N/A   Clear
11:50 PM 32.0 °F - 23.0 °F 69% 30.27 in - Calm Calm - N/A   Clear